This demonstration page uses our WeatherBlox Daily Observations layout. Learn more.

Left ArrowRight Arrow

53.62937, 11.41316

Hourly Observations for February 5, 2017

Temp ( °F °C ) Dew Point ( °F °C ) Humidity (%) Winds ( mph kmh ) Pressure ( in mb ) Visibility ( mi km ) Precip ( " mm )
6:50 am 06:50 Cloudy with Mist and Fog 36 2 34 1 93 93 ENE 7 11 29.62 1003 1 2 N/A
7:20 am 07:20 Cloudy with Mist and Fog 34 1 34 1 100 100 E 7 11 29.65 1004 1 2 N/A
7:50 am 07:50 Cloudy with Mist and Fog 34 1 34 1 100 100 E 9 15 29.65 1004 1 2 N/A
8:20 am 08:20 Cloudy with Mist and Fog 34 1 23 -5 65 65 E 7 11 29.65 1004 1 2 N/A
8:50 am 08:50 Cloudy with Mist and Fog 32 0 32 0 100 100 ESE 8 13 29.65 1004 2 3 N/A
9:20 am 09:20 Cloudy with Mist and Fog 32 0 32 0 100 100 E 9 15 29.68 1005 1 2 N/A
9:50 am 09:50 Cloudy with Mist and Fog 32 0 32 0 100 100 E 8 13 29.65 1004 1 2 N/A
10:20 am 10:20 Cloudy with Mist and Fog 34 1 34 1 100 100 E 7 11 29.65 1004 2 3 N/A
10:50 am 10:50 Cloudy with Mist and Fog 34 1 34 1 100 100 E 9 15 29.65 1004 2 4 N/A
11:20 am 11:20 Cloudy with Mist and Fog 34 1 34 1 100 100 E 7 11 29.68 1005 2 4 N/A
11:50 am 11:50 Cloudy with Mist and Fog 34 1 34 1 100 100 E 9 15 29.68 1005 2 4 N/A
12:20 pm 12:20 Cloudy with Mist and Fog 36 2 34 1 93 93 E 9 15 29.68 1005 3 5 N/A
12:50 pm 12:50 Cloudy with Mist and Fog 36 2 36 2 100 100 E 7 11 29.68 1005 3 5 N/A
1:20 pm 13:20 Cloudy 36 2 34 1 93 93 SE 3 6 29.68 1005 4 6 N/A
1:50 pm 13:50 Cloudy 36 2 34 1 93 93 ESE 3 6 29.68 1005 4 7 N/A
2:20 pm 14:20 Cloudy 37 3 34 1 87 87 E 5 7 29.68 1005 5 8 N/A
2:50 pm 14:50 Cloudy 37 3 34 1 87 87 E 7 11 29.68 1005 4 6 N/A
3:20 pm 15:20 Cloudy 37 3 34 1 87 87 E 5 7 29.71 1006 4 7 N/A
3:50 pm 15:50 Mostly Cloudy 37 3 36 2 93 93 E 6 9 29.71 1006 4 7 N/A
4:20 pm 16:20 Mostly Cloudy 37 3 36 2 93 93 E 7 11 29.71 1006 4 7 N/A
4:50 pm 16:50 Mostly Cloudy 37 3 34 1 87 87 E 3 6 29.71 1006 4 7 N/A
5:20 pm 17:20 Mostly Cloudy 37 3 36 2 93 93 E 7 11 29.71 1006 4 7 N/A
5:50 pm 17:50 Mostly Cloudy 36 2 36 2 100 100 ENE 8 13 29.71 1006 3 5 N/A
6:20 pm 18:20 Mostly Cloudy with Mist and Fog 37 3 36 2 93 93 ENE 7 11 29.74 1007 3 4 N/A

Powered by AerisWeather